[[{"header":{"parameterUnit":"m.s-1","parameterCategory":1,"la1":30.2991,"la2":30.254,"lo1":-89.0895,"lo2":-89.0444,"dy":0.0017,"dx":0.0017,"nx":28,"ny":28,"refTime":"2024-07-11T03:00:00:Z","depth":0,"parameterNumber":2,"parameterNumberName":"U-component_of_WINDS"},"data":[0,0,0,0,0,0,0,0,0,0,0,0,0,0,0,0,0,0,0,0,0,0,0,0,0,0,0,0,0,0,0,0,0,0,0,0,0,0,0,0,0,0,0,0,0,0,0,0,0,0,0,0,0,0,0,0,0,0,2.7413,2.7413,0,2.7416,2.7416,2.7416,2.7346,2.7344,2.7342,2.734,2.7345,2.7347,2.7349,0,0,0,0,0,0,0,0,0,0,0,0,0,2.7347,2.7349,2.7413,2.7413,2.7413,2.7416,2.7416,2.7416,2.7346,2.7344,2.7342,2.7339,2.7344,2.7346,2.7349,0,0,0,0,0,0,0,0,0,0,0,0,0,2.7366,2.7349,2.7413,2.7378,2.7375,2.7416,2.7416,2.7416,2.7347,2.7344,2.7341,2.7338,2.7343,2.7346,2.7349,2.7423,0,0,2.7358,2.7359,0,0,0,0,0,0,0,0,2.7365,2.7368,2.7384,2.7381,2.7378,2.7378,2.7394,2.7419,2.7347,2.7358,2.734,2.7337,2.7358,2.736,2.7366,2.7423,2.7424,2.7358,2.736,2.7361,2.7362,0,0,0,0,0,0,0,2.7363,2.7367,2.7414,2.7384,2.738,2.7363,2.7362,2.7399,2.7374,2.7357,2.7351,2.7353,2.7356,2.7364,2.7366,2.7424,2.7358,2.736,2.7362,2.7363,2.7539,2.7541,0,0,0,0,0,0,2.7367,2.7367,2.7414,2.7414,2.7364,2.7366,2.7366,2.7381,2.7373,2.7369,2.7355,2.7349,2.736,2.7363,2.7366,2.7449,2.7361,2.7363,2.7365,2.7536,2.7539,2.7542,0,0,0,0,0,0,2.7365,2.7372,2.7414,2.7389,2.7393,2.7371,2.7388,2.7382,2.739,2.7372,2.7367,2.7368,2.7358,2.7362,2.7409,2.7449,2.7365,2.7367,2.7532,2.7537,2.7541,2.7619,0,0,0,0,0,0,2.7364,2.7372,2.7399,2.739,2.7395,2.7457,2.739,2.7384,2.7395,2.7387,2.7383,2.7379,2.7356,2.7405,2.7411,2.7451,2.737,2.7528,2.7534,2.7539,2.7612,2.7625,2.7636,0,0,0,0,0,2.7362,2.7422,2.7401,2.7407,2.7429,2.7459,2.7462,2.7434,2.7398,2.7426,2.7414,2.7379,2.7444,2.741,2.7417,2.7458,2.7526,2.7533,2.7539,2.7607,2.7623,2.7636,0,0,0,0,0,0,2.7438,2.742,2.7397,2.7456,2.746,2.7447,2.7481,2.7452,2.7466,2.7458,2.7424,2.7423,2.7475,2.7472,2.7435,2.7528,2.7478,2.7487,2.7528,2.7543,2.7554,2.7553,2.7372,0,0,0,0,0,2.7461,2.7487,2.7471,2.7525,2.7527,2.7504,2.7516,2.7494,2.7497,2.7498,2.749,2.7494,2.7514,2.7529,2.7547,2.7613,2.7609,2.7644,2.7656,2.7666,2.7673,2.7704,2.7719,2.7564,2.7564,2.7564,0,0,2.751,2.7504,2.7522,2.754,2.7539,2.7566,2.7506,2.7537,2.7556,2.7503,2.7545,2.754,2.7542,2.7597,2.7621,2.7596,2.7715,2.7675,2.7683,2.7684,2.7713,2.7727,2.774,2.7569,2.7568,2.7567,0,0,2.7612,2.7612,2.7654,2.7655,2.7655,2.764,2.765,2.7642,2.7636,2.7678,2.7638,2.7661,2.7698,2.77,2.7706,2.7808,2.7775,2.7815,2.7876,2.7907,2.7919,2.793,2.7963,2.7976,2.7823,2.7823,2.7823,0,2.7673,2.7711,2.7681,2.7713,2.7721,2.7674,2.7716,2.7719,2.7726,2.7732,2.7704,2.7748,2.7747,2.78,2.7825,2.7833,2.7842,2.7814,2.792,2.7931,2.794,2.7971,2.7984,2.7827,2.7827,2.7826,2.7826,0,2.7784,2.7811,2.7846,2.7852,2.7864,2.7902,2.7877,2.7893,2.7871,2.7858,2.79,2.7897,2.7912,2.7924,2.7903,2.7975,2.7958,2.7926,2.7875,2.796,2.7988,2.8,2.7834,2.7832,2.7831,2.783,0,0,2.7933,2.792,2.7933,2.7934,2.7931,2.7951,2.7987,2.8001,2.8014,2.8021,2.8048,2.8081,2.805,2.8057,2.8036,2.8064,2.8141,2.8028,2.8027,2.8046,2.8216,2.8238,2.8253,2.8121,2.8123,2.8125,2.8215,0,2.8029,2.8087,2.806,2.8122,2.8145,2.81,2.8131,2.8132,2.8121,2.8139,2.8128,2.8149,2.8109,2.8112,2.8138,2.8126,2.8174,2.812,2.8144,2.8146,2.8142,2.8268,2.8292,2.8377,2.8226,2.8228,2.823,0,2.8148,2.8158,2.8221,2.8211,2.822,2.8248,2.8257,2.8276,2.8276,2.8266,2.8273,2.8245,2.8279,2.8231,2.8276,2.8239,2.8248,2.8244,2.8246,2.8245,2.819,2.8267,2.8404,2.8415,2.8248,2.8246,2.8245,0,2.8246,2.8275,2.8315,2.8318,2.8309,2.8329,2.8326,2.8323,2.8333,2.8342,2.8347,2.8362,2.8368,2.8379,2.8356,2.8323,2.8403,2.8353,2.8394,2.8394,2.841,2.8409,2.8547,2.8422,2.8422,2.8422,2.8421,0,2.8354,2.8393,2.8358,2.8383,2.8426,2.8395,2.8439,2.8431,2.8429,2.8451,2.8415,2.8436,2.8405,2.8424,2.8406,2.8444,2.8449,2.8441,2.8435,2.8442,2.8442,2.8445,2.8437,2.8425,2.8424,2.8424,2.8423,0,2.8469,2.8447,2.8488,2.8475,2.8473,2.8504,2.8493,2.8515,2.8502,2.853,2.8535,2.8515,2.8534,2.8513,2.8532,2.852,2.857,2.8557,2.8569,2.8564,2.8605,2.86,2.8746,2.8763,2.8631,2.8632,2.8633,0,2.8537,2.8566,2.8556,2.8567,2.8566,2.8586,2.8595,2.8566,2.8577,2.8578,2.86,2.8617,2.8628,2.8662,2.8648,2.8662,2.8647,2.8698,2.8649,2.8655,2.8644,2.8641,2.8642,2.8707,2.8708,2.871,2.8711,0,2.866,2.8647,2.8661,2.8671,2.8682,2.8689,2.8693,2.8705,2.8675,2.869,2.8709,2.8717,2.8736,2.8752,2.8762,2.8759,2.8729,2.8727,2.8736,2.8742,2.8746,2.8741,2.8592,2.8723,2.8721,2.872,2.872,2.8719,2.8751,2.8773,2.8769,2.8785,2.8785,2.8789,2.8808,2.8797,2.8812,2.8823,2.8806,2.8829,2.8828,2.8837,2.8838,2.8855,2.8834,2.8849,2.8852,2.8855,2.8859,2.8746,2.8858,2.8857,2.8857,2.8857,2.8857,0,2.8869,2.8863,2.8879,2.8884,2.8897,2.8868,2.8871,2.8883,2.8903,2.8904,2.8916,2.8937,2.8952,2.894,2.8953,2.8969,2.8955,2.8973,2.8969,2.8969,2.888,2.8868,2.8983,2.8983,2.8983,2.8983,2.8983,2.8983,2.8931,2.8966,2.8953,2.8988,2.8983,2.9004,2.9007,2.9011,2.9011,2.9035,2.9047,2.9039,2.9034,2.9046,2.9058,2.9054,2.9059,2.9081,2.9072,2.8988,2.8975,2.8963,2.8952,2.9083,2.9083,2.9159,2.916,2.916]},{"header":{"parameterUnit":"m.s-1","parameterCategory":1,"la1":30.2991,"la2":30.254,"lo1":-89.0895,"lo2":-89.0444,"dy":0.0017,"dx":0.0017,"nx":28,"ny":28,"refTime":"2024-07-11T03:00:00:Z","depth":0,"parameterNumber":3,"parameterNumberName":"V-component_of_WINDS"},"data":[0,0,0,0,0,0,0,0,0,0,0,0,0,0,0,0,0,0,0,0,0,0,0,0,0,0,0,0,0,0,0,0,0,0,0,0,0,0,0,0,0,0,0,0,0,0,0,0,0,0,0,0,0,0,0,0,0,0,2.1395,2.1397,0,2.1508,2.1509,2.151,2.1535,2.1534,2.1533,2.1533,2.1645,2.1649,2.1652,0,0,0,0,0,0,0,0,0,0,0,0,0,2.1197,2.1201,2.1395,2.1397,2.1398,2.1508,2.1509,2.1511,2.1535,2.1534,2.1533,2.1532,2.1644,2.1648,2.1653,0,0,0,0,0,0,0,0,0,0,0,0,0,2.1294,2.1202,2.1395,2.1423,2.1427,2.1507,2.1509,2.1511,2.1535,2.1534,2.1533,2.1532,2.1642,2.1648,2.1653,2.1712,0,0,2.167,2.1673,0,0,0,0,0,0,0,0,2.1288,2.1301,2.1418,2.1422,2.1426,2.1506,2.1481,2.1578,2.1536,2.1494,2.1533,2.1531,2.16,2.1609,2.1632,2.1717,2.1722,2.1671,2.1674,2.1677,2.1678,0,0,0,0,0,0,0,2.1282,2.1296,2.144,2.1419,2.1424,2.1429,2.1442,2.1499,2.1552,2.1498,2.15,2.1513,2.1601,2.1627,2.1635,2.1724,2.1671,2.1676,2.1679,2.1681,2.1861,2.1862,0,0,0,0,0,0,2.127,2.1291,2.1436,2.1443,2.1353,2.1434,2.1448,2.1482,2.1552,2.1561,2.1514,2.1514,2.1618,2.1629,2.1639,2.1712,2.1677,2.1682,2.1685,2.1859,2.1861,2.1863,0,0,0,0,0,0,2.1266,2.1283,2.1432,2.1367,2.1387,2.1439,2.1476,2.1484,2.151,2.1564,2.1573,2.153,2.1617,2.1631,2.1694,2.1716,2.1684,2.169,2.1858,2.186,2.1862,2.1858,0,0,0,0,0,0,2.126,2.1281,2.1305,2.1368,2.139,2.1485,2.1478,2.1488,2.152,2.1521,2.1582,2.1591,2.1617,2.1685,2.1699,2.1723,2.1694,2.1856,2.1859,2.1861,2.1856,2.1859,2.1862,0,0,0,0,0,2.1253,2.13,2.1307,2.1324,2.1421,2.1487,2.1499,2.153,2.1522,2.1545,2.158,2.1589,2.1711,2.1691,2.1707,2.1733,2.1855,2.1858,2.1861,2.1855,2.1859,2.1862,0,0,0,0,0,0,2.1238,2.1308,2.1317,2.1385,2.143,2.1491,2.1522,2.1534,2.1581,2.158,2.1615,2.1628,2.1688,2.1717,2.1693,2.1793,2.1782,2.1789,2.1772,2.1776,2.1779,2.1771,2.1699,0,0,0,0,0,2.1243,2.1291,2.1349,2.1404,2.1426,2.147,2.1499,2.1519,2.1566,2.1585,2.1624,2.1669,2.1717,2.1748,2.1796,2.186,2.1873,2.1886,2.1889,2.1891,2.1896,2.193,2.1936,2.1873,2.1873,2.1873,0,0,2.1253,2.1297,2.1325,2.1402,2.1439,2.1487,2.1486,2.1537,2.1572,2.1593,2.1654,2.1684,2.1736,2.1799,2.1829,2.1825,2.1916,2.1895,2.1896,2.19,2.1934,2.194,2.1945,2.1875,2.1875,2.1874,0,0,2.1295,2.1334,2.1383,2.142,2.1476,2.1505,2.1516,2.1576,2.1596,2.1659,2.1675,2.1716,2.1799,2.1835,2.1864,2.1919,2.1928,2.1933,2.1949,2.1982,2.1987,2.1992,2.201,2.2016,2.1938,2.1938,2.1938,0,2.13,2.1374,2.1407,2.1457,2.1489,2.1511,2.1559,2.1593,2.1661,2.1683,2.1678,2.1781,2.1818,2.1889,2.1902,2.1925,2.1938,2.1926,2.1984,2.1989,2.1993,2.2011,2.2018,2.1938,2.1938,2.1938,2.1938,0,2.1377,2.1428,2.146,2.1526,2.1562,2.1612,2.165,2.1682,2.1698,2.1727,2.1789,2.1833,2.1889,2.1908,2.1924,2.1981,2.1976,2.1977,2.1967,2.1999,2.2016,2.2023,2.1938,2.1938,2.1938,2.1938,0,0,2.1414,2.1496,2.1508,2.1537,2.16,2.1639,2.1688,2.1744,2.177,2.1816,2.1857,2.1926,2.1927,2.196,2.198,2.2009,2.2047,2.2006,2.2008,2.2011,2.2111,2.2109,2.2117,2.2054,2.2055,2.2056,2.2106,0,2.1464,2.1554,2.1583,2.1657,2.1704,2.1724,2.1766,2.1808,2.1836,2.1878,2.1908,2.1956,2.1954,2.1974,2.2004,2.2036,2.2067,2.2033,2.2091,2.2093,2.2077,2.2126,2.2125,2.217,2.2113,2.2114,2.2115,0,2.1534,2.1581,2.166,2.1715,2.1735,2.1773,2.1826,2.1866,2.1914,2.1932,2.1968,2.1985,2.2036,2.2023,2.2092,2.2068,2.2093,2.2112,2.2115,2.2121,2.2106,2.2133,2.2185,2.2191,2.2126,2.2125,2.2124,0,2.1551,2.1635,2.1692,2.1717,2.1783,2.1809,2.1837,2.1884,2.1915,2.196,2.198,2.203,2.2058,2.2096,2.2126,2.2114,2.2191,2.2181,2.2206,2.2206,2.2222,2.222,2.2278,2.2239,2.2239,2.2239,2.2239,0,2.1603,2.165,2.1701,2.1736,2.1789,2.1822,2.1872,2.1902,2.1942,2.1983,2.2003,2.204,2.2077,2.2119,2.2142,2.2195,2.2207,2.2222,2.2228,2.222,2.2218,2.2237,2.2234,2.2241,2.224,2.224,2.2239,0,2.1632,2.1668,2.1732,2.1789,2.1804,2.184,2.1889,2.1923,2.1951,2.2001,2.2015,2.2059,2.2108,2.2142,2.2206,2.2221,2.2278,2.2283,2.2262,2.2265,2.2288,2.2285,2.2359,2.237,2.2324,2.2325,2.2325,0,2.1663,2.1699,2.176,2.1789,2.1818,2.1864,2.1895,2.1928,2.196,2.2016,2.2043,2.2094,2.2137,2.2215,2.2252,2.23,2.2306,2.2329,2.2313,2.2304,2.2305,2.2302,2.2306,2.2331,2.2331,2.2331,2.2332,0,2.1712,2.1728,2.1773,2.1825,2.1862,2.1904,2.1945,2.1967,2.2007,2.2042,2.2093,2.2126,2.2191,2.2241,2.2292,2.232,2.2332,2.2336,2.2344,2.2337,2.2323,2.233,2.2268,2.2334,2.2334,2.2334,2.2334,2.2334,2.1743,2.1775,2.1823,2.1872,2.1907,2.1946,2.198,2.2012,2.2056,2.2112,2.2128,2.2181,2.2226,2.2296,2.2325,2.2366,2.2364,2.2376,2.2379,2.2381,2.238,2.2316,2.2375,2.2375,2.2375,2.2375,2.2375,0,2.1792,2.1824,2.1869,2.1927,2.1965,2.1974,2.202,2.2051,2.2098,2.2139,2.218,2.2238,2.2287,2.2326,2.2376,2.2401,2.2407,2.2412,2.2411,2.2417,2.238,2.2368,2.2406,2.2406,2.2406,2.2406,2.2406,2.2406,2.1823,2.1879,2.19,2.1972,2.2003,2.2056,2.2081,2.2116,2.2149,2.2213,2.2253,2.2279,2.2319,2.2372,2.2416,2.2426,2.2443,2.2447,2.2458,2.2423,2.2419,2.2416,2.2404,2.245,2.245,2.2491,2.2491,2.2492]}]]